Location: Lugrin
(46.4033°N, 6.6674°E)
Time: 08:31:28
(UTC+00:00)

N. Korean satellite - Pass Details

Date: 26 November 2020
Orbit: 453 x 502 km, 97.2° (Epoch: 16 January)

Event Time Altitude Azimuth Distance (km) Brightness Sun altitude
Rises 04:47:14 0° 17° (NNE) 2,542 10.3 -20.7°
Reaches altitude 10° 04:49:21 10° 24° (NNE) 1,666 9.4 -20.3°
Maximum altitude 04:52:49 47° 99° (E) 656 7.6 -19.7°
Drops below altitude 10° 04:56:19 10° 174° (S) 1,678 9.5 -19.2°
Sets 04:58:27 0° 181° (S) 2,562 10.4 -18.8°
